[[{"header":{"parameterUnit":"m.s-1","parameterCategory":2,"la1":30.2991,"la2":30.254,"lo1":-89.0895,"lo2":-89.0444,"dy":0.0017,"dx":0.0017,"nx":28,"ny":28,"refTime":"2024-08-11T21:00:00:Z","depth":"0","parameterNumber":2,"parameterNumberName":"U-component_of_CURRENTS"},"data":[0,0,0,0,0,0,0,0,0,0,0,0,0,0,0,0,0,0,0,0,0,0,0,0,0,0,0,0,0,0,0,0,0,0,0,0,0,0,0,0,0,0,0,0,0,0,0,0,0,0,0,0,0,0,0,0,0,0,0.1584,0.1584,0,0.1532,0.1532,0.1531,0.1469,0.1468,0.1466,0.1465,0.1409,0.1409,0.1408,0,0,0,0,0,0,0,0,0,0,0,0,0,0.161,0.161,0.1584,0.1584,0.1583,0.1532,0.1532,0.1531,0.1469,0.1468,0.1466,0.1465,0.1409,0.1409,0.1408,0,0,0,0,0,0,0,0,0,0,0,0,0,0.1584,0.161,0.1585,0.1545,0.1541,0.1532,0.1532,0.1531,0.1469,0.1467,0.1466,0.1464,0.1409,0.1409,0.1408,0.1435,0,0,0.1406,0.1405,0,0,0,0,0,0,0,0,0.1585,0.1583,0.1552,0.1548,0.1543,0.1504,0.152,0.1498,0.1469,0.1498,0.1465,0.1464,0.1441,0.1438,0.1433,0.1433,0.143,0.1406,0.1405,0.1405,0.1405,0,0,0,0,0,0,0,0.1587,0.1585,0.1565,0.1551,0.1546,0.1522,0.1517,0.1515,0.148,0.1495,0.149,0.1483,0.1438,0.1434,0.1431,0.1429,0.1406,0.1405,0.1404,0.1404,0.1468,0.147,0,0,0,0,0,0,0.1594,0.1587,0.1567,0.1563,0.1559,0.1523,0.1518,0.1519,0.148,0.1472,0.1484,0.148,0.1436,0.1432,0.1429,0.1483,0.1405,0.1404,0.1404,0.1466,0.1468,0.1471,0,0,0,0,0,0,0.1595,0.1593,0.1569,0.1572,0.1567,0.1525,0.1527,0.1519,0.1513,0.1471,0.1463,0.1486,0.1434,0.143,0.1432,0.148,0.1404,0.1403,0.1463,0.1467,0.147,0.1577,0,0,0,0,0,0,0.1596,0.1594,0.1614,0.1573,0.1567,0.1588,0.1528,0.1519,0.1511,0.1505,0.1471,0.1463,0.1433,0.1433,0.1431,0.1477,0.1402,0.1461,0.1465,0.1469,0.1571,0.1583,0.1594,0,0,0,0,0,0.1598,0.1643,0.1615,0.1613,0.159,0.159,0.1587,0.155,0.1513,0.1534,0.1495,0.1464,0.1458,0.1434,0.1431,0.1478,0.1459,0.1464,0.1468,0.1565,0.1581,0.1594,0,0,0,0,0,0,0.1669,0.1639,0.1608,0.1642,0.1622,0.158,0.1598,0.1561,0.1547,0.154,0.1484,0.1477,0.1512,0.1476,0.1451,0.151,0.1457,0.1462,0.1532,0.1546,0.1558,0.1601,0.1402,0,0,0,0,0,0.1691,0.1719,0.1672,0.1704,0.1691,0.1641,0.1638,0.1613,0.1586,0.1577,0.155,0.1528,0.1533,0.152,0.1529,0.1544,0.1567,0.1576,0.1587,0.1598,0.1632,0.1717,0.174,0.1487,0.1487,0.1487,0,0,0.1726,0.1717,0.173,0.1721,0.1697,0.1698,0.1637,0.1645,0.1653,0.1577,0.1593,0.1583,0.1553,0.1585,0.1595,0.1552,0.1679,0.1604,0.1612,0.1642,0.1725,0.1749,0.1772,0.149,0.1489,0.1489,0,0,0.1795,0.1797,0.1821,0.1816,0.1792,0.1767,0.177,0.1734,0.1726,0.1733,0.1695,0.1715,0.169,0.1698,0.1689,0.1772,0.1758,0.1762,0.1834,0.1916,0.1938,0.1958,0.201,0.2034,0.1744,0.1745,0.1745,0,0.1837,0.1846,0.1833,0.1847,0.1841,0.1796,0.1803,0.1807,0.1783,0.1786,0.1756,0.1775,0.1757,0.18,0.1829,0.1805,0.1832,0.1778,0.1934,0.1954,0.1973,0.2022,0.2047,0.175,0.175,0.1749,0.1749,0,0.1889,0.1907,0.1927,0.1921,0.1928,0.1941,0.1919,0.1937,0.1912,0.1903,0.1952,0.1941,0.1945,0.195,0.1909,0.2024,0.1996,0.1959,0.1901,0.2005,0.2049,0.2073,0.1759,0.1757,0.1755,0.1753,0,0,0.1943,0.1956,0.1959,0.1949,0.1961,0.1957,0.2004,0.201,0.2018,0.2047,0.2073,0.2119,0.2115,0.211,0.2083,0.2148,0.2299,0.2108,0.2109,0.2167,0.2468,0.2411,0.2431,0.2285,0.229,0.2294,0.2443,0,0.1969,0.1993,0.2003,0.2024,0.2018,0.2022,0.2055,0.2075,0.2082,0.2113,0.2152,0.2172,0.2172,0.2162,0.2252,0.2269,0.2369,0.2261,0.2354,0.2357,0.23,0.246,0.2399,0.2525,0.2467,0.2471,0.2473,0,0.1987,0.1998,0.2013,0.2029,0.2026,0.2046,0.2065,0.2091,0.2152,0.2162,0.2231,0.2243,0.2346,0.2323,0.2494,0.2418,0.2486,0.2516,0.2521,0.2455,0.2347,0.2413,0.257,0.2446,0.251,0.2507,0.2504,0,0.1968,0.1999,0.2002,0.2011,0.2033,0.2046,0.2057,0.2103,0.2114,0.2193,0.2207,0.2335,0.2362,0.2505,0.257,0.2544,0.2746,0.2703,0.2738,0.2732,0.2696,0.2678,0.2755,0.2897,0.2897,0.2897,0.2896,0,0.1974,0.1974,0.1988,0.1988,0.1988,0.2018,0.2031,0.206,0.2115,0.2138,0.2226,0.2267,0.2414,0.2518,0.2619,0.2746,0.2797,0.2813,0.2797,0.2726,0.2711,0.2607,0.2544,0.2902,0.2901,0.29,0.2899,0,0.1943,0.1959,0.1955,0.1973,0.1973,0.1967,0.1989,0.2001,0.2057,0.2095,0.212,0.2233,0.2368,0.2506,0.2695,0.2768,0.2823,0.2942,0.2832,0.2802,0.2708,0.2652,0.2644,0.2581,0.3035,0.3035,0.3034,0,0.193,0.1923,0.1921,0.1908,0.1911,0.1911,0.1911,0.1961,0.1975,0.2065,0.208,0.2212,0.2305,0.2551,0.2718,0.2916,0.2812,0.2946,0.2914,0.2748,0.2676,0.2525,0.2462,0.2906,0.2905,0.2904,0.2903,0,0.1891,0.1885,0.1874,0.1847,0.1836,0.1827,0.1833,0.184,0.1905,0.1949,0.2017,0.21,0.2335,0.2494,0.2723,0.2846,0.2773,0.2932,0.2817,0.2657,0.2449,0.2361,0.2726,0.2895,0.2896,0.2897,0.2897,0.2898,0.1848,0.1825,0.1802,0.1769,0.1756,0.1734,0.1718,0.1752,0.1775,0.1833,0.1933,0.2042,0.2272,0.2596,0.2686,0.2766,0.2736,0.2731,0.2703,0.2582,0.2453,0.2785,0.2883,0.2884,0.2885,0.2885,0.2886,0,0.1775,0.1751,0.1724,0.1678,0.1638,0.1656,0.1653,0.1642,0.166,0.1759,0.1828,0.2035,0.221,0.2405,0.2595,0.2541,0.2469,0.2459,0.2254,0.2228,0.2596,0.2517,0.2471,0.2471,0.2471,0.2472,0.2472,0.2472,0.1732,0.1675,0.1656,0.1564,0.1538,0.1487,0.1479,0.1485,0.1542,0.1629,0.1734,0.1846,0.2062,0.2217,0.2255,0.2255,0.2075,0.1991,0.195,0.2208,0.223,0.2251,0.2162,0.2042,0.2042,0.1512,0.1508,0.1505]},{"header":{"parameterUnit":"m.s-1","parameterCategory":2,"la1":30.2991,"la2":30.254,"lo1":-89.0895,"lo2":-89.0444,"dy":0.0017,"dx":0.0017,"nx":28,"ny":28,"refTime":"2024-08-11T21:00:00:Z","depth":"0","parameterNumber":3,"parameterNumberName":"V-component_of_CURRENTS"},"data":[0,0,0,0,0,0,0,0,0,0,0,0,0,0,0,0,0,0,0,0,0,0,0,0,0,0,0,0,0,0,0,0,0,0,0,0,0,0,0,0,0,0,0,0,0,0,0,0,0,0,0,0,0,0,0,0,0,0,-0.0148,-0.015,0,-0.0225,-0.0226,-0.0226,-0.0333,-0.0335,-0.0337,-0.0339,-0.0421,-0.0421,-0.0422,0,0,0,0,0,0,0,0,0,0,0,0,0,-0.0138,-0.0137,-0.0148,-0.015,-0.0151,-0.0225,-0.0226,-0.0226,-0.0333,-0.0335,-0.0338,-0.034,-0.0421,-0.0421,-0.0422,0,0,0,0,0,0,0,0,0,0,0,0,0,-0.0168,-0.0137,-0.0148,-0.0215,-0.0222,-0.0225,-0.0226,-0.0227,-0.0332,-0.0335,-0.0339,-0.0342,-0.0421,-0.0421,-0.0422,-0.0359,0,0,-0.0423,-0.0423,0,0,0,0,0,0,0,0,-0.0166,-0.0168,-0.0204,-0.0211,-0.0219,-0.0276,-0.0253,-0.0272,-0.0331,-0.0287,-0.0339,-0.0343,-0.0373,-0.0377,-0.038,-0.0363,-0.0367,-0.0423,-0.0423,-0.0423,-0.0423,0,0,0,0,0,0,0,-0.0164,-0.0165,-0.0175,-0.0205,-0.0214,-0.0257,-0.0264,-0.0257,-0.0308,-0.0291,-0.03,-0.0313,-0.0377,-0.0379,-0.0382,-0.0368,-0.0423,-0.0423,-0.0423,-0.0423,-0.0259,-0.0254,0,0,0,0,0,0,-0.0155,-0.0163,-0.0173,-0.0178,-0.0204,-0.0255,-0.0263,-0.0251,-0.0309,-0.0321,-0.031,-0.0318,-0.0377,-0.0382,-0.0386,-0.0261,-0.0423,-0.0423,-0.0423,-0.0263,-0.0258,-0.0253,0,0,0,0,0,0,-0.0154,-0.0154,-0.017,-0.0177,-0.0183,-0.0252,-0.0238,-0.0251,-0.0251,-0.0324,-0.0337,-0.0297,-0.038,-0.0385,-0.0362,-0.0268,-0.0423,-0.0424,-0.0268,-0.0261,-0.0255,-0.0047,0,0,0,0,0,0,-0.0153,-0.0152,-0.0125,-0.0175,-0.0182,-0.0127,-0.0236,-0.0251,-0.0256,-0.0266,-0.0316,-0.0328,-0.0383,-0.0361,-0.0363,-0.0271,-0.0424,-0.0274,-0.0265,-0.0257,-0.0059,-0.0033,-0.0011,0,0,0,0,0,-0.0152,-0.007,-0.0122,-0.0124,-0.0146,-0.0123,-0.0127,-0.0189,-0.0252,-0.0208,-0.0265,-0.0326,-0.0308,-0.0358,-0.0361,-0.0267,-0.0278,-0.0268,-0.0258,-0.007,-0.0038,-0.0012,0,0,0,0,0,0,-0.0029,-0.0076,-0.0134,-0.0068,-0.0089,-0.0142,-0.0109,-0.0164,-0.0173,-0.0185,-0.0278,-0.0289,-0.0229,-0.027,-0.0324,-0.0191,-0.0297,-0.0287,-0.0153,-0.0124,-0.01,-0.0075,-0.0424,0,0,0,0,0,0.0002,0.0044,-0.002,0.004,0.0025,-0.0046,-0.0045,-0.0079,-0.0108,-0.0117,-0.016,-0.0189,-0.0182,-0.0177,-0.0177,-0.0106,-0.0153,-0.0042,-0.0018,0.0002,0.0025,0.0034,0.006,-0.0219,-0.0219,-0.0219,0,0,0.007,0.0048,0.0073,0.0067,0.0034,0.0069,-0.0049,-0.0015,0.0023,-0.0118,-0.0065,-0.0104,-0.0145,-0.0071,-0.0045,-0.0098,0.006,0.0015,0.0033,0.0044,0.0047,0.0074,0.0098,-0.0212,-0.0213,-0.0214,0,0,0.0225,0.0197,0.0264,0.0256,0.0228,0.0192,0.0206,0.0167,0.0154,0.0198,0.0109,0.0129,0.0129,0.0127,0.0121,0.0286,0.0185,0.0287,0.0431,0.0441,0.0463,0.0482,0.0463,0.0478,0.03,0.0301,0.0301,0,0.0303,0.035,0.0297,0.0348,0.0343,0.0253,0.031,0.0318,0.03,0.0299,0.025,0.0263,0.0235,0.031,0.0366,0.0344,0.0305,0.0319,0.0471,0.0488,0.0504,0.0479,0.0493,0.0312,0.0311,0.031,0.0309,0,0.0475,0.0506,0.0553,0.0565,0.0581,0.0627,0.0592,0.0622,0.0578,0.0554,0.0608,0.0572,0.0564,0.0585,0.0524,0.0638,0.0559,0.0495,0.0392,0.0544,0.0508,0.052,0.0328,0.0324,0.0321,0.0318,0,0,0.0633,0.0662,0.0668,0.0663,0.068,0.0695,0.0789,0.0804,0.0822,0.0847,0.0878,0.093,0.0869,0.086,0.0801,0.0829,0.0917,0.0722,0.0717,0.0693,0.0913,0.0841,0.0844,0.0861,0.0865,0.0867,0.0843,0,0.0752,0.0847,0.0852,0.0936,0.0949,0.0918,0.0989,0.1012,0.1,0.1025,0.102,0.1029,0.0985,0.0964,0.1007,0.0913,0.0955,0.0928,0.0777,0.0773,0.0682,0.0859,0.0861,0.0839,0.0853,0.0855,0.0856,0,0.087,0.0903,0.0992,0.1015,0.1021,0.1082,0.1101,0.1162,0.1199,0.1191,0.1228,0.118,0.1239,0.116,0.1158,0.1129,0.1065,0.1006,0.1001,0.087,0.0724,0.0689,0.0857,0.0749,0.0871,0.087,0.0869,0,0.0887,0.0981,0.1028,0.1043,0.1093,0.1129,0.1159,0.12,0.122,0.1276,0.1278,0.1331,0.1311,0.1296,0.1193,0.1167,0.1156,0.1088,0.098,0.0971,0.0914,0.0895,0.0954,0.1124,0.1124,0.1124,0.1124,0,0.0949,0.0981,0.1029,0.1045,0.1097,0.1137,0.119,0.1227,0.128,0.1307,0.1344,0.136,0.134,0.1313,0.1245,0.1152,0.1199,0.1051,0.0988,0.0987,0.0976,0.0825,0.0749,0.1123,0.1124,0.1124,0.1124,0,0.0928,0.097,0.1009,0.1071,0.109,0.1114,0.1177,0.1213,0.1269,0.1309,0.1325,0.1371,0.1348,0.131,0.1248,0.1179,0.1046,0.1059,0.1049,0.0987,0.0785,0.072,0.0703,0.0656,0.096,0.0958,0.0957,0,0.0916,0.0935,0.0991,0.1006,0.1028,0.1075,0.1109,0.1186,0.1222,0.13,0.1317,0.1327,0.1335,0.1247,0.1158,0.1067,0.0979,0.097,0.0952,0.0825,0.0705,0.0676,0.0636,0.0956,0.0954,0.0953,0.0953,0,0.0876,0.0892,0.0918,0.0951,0.0983,0.1035,0.1091,0.1117,0.1209,0.125,0.1295,0.1314,0.1266,0.1199,0.1084,0.1013,0.0896,0.0943,0.0839,0.0757,0.0706,0.061,0.0887,0.0944,0.0945,0.0946,0.0946,0.0946,0.0821,0.0826,0.0858,0.0889,0.0935,0.0994,0.1023,0.1089,0.1147,0.1221,0.1256,0.13,0.1247,0.1114,0.0984,0.0784,0.0795,0.0712,0.0656,0.0648,0.0589,0.0836,0.0795,0.0795,0.0795,0.0795,0.0795,0,0.0747,0.0771,0.0797,0.0845,0.0885,0.0932,0.1013,0.1043,0.1095,0.1189,0.1234,0.1268,0.113,0.0999,0.0762,0.0556,0.0516,0.0443,0.0429,0.0411,0.066,0.0645,0.0538,0.0538,0.0538,0.0538,0.0538,0.0539,0.0704,0.0705,0.0735,0.0781,0.0825,0.087,0.0912,0.0964,0.1041,0.1134,0.1206,0.1284,0.1275,0.0784,0.0433,0.0334,0.0192,0.0151,0.0074,0.025,0.0272,0.0292,0.0265,0.0079,0.0079,-0.0121,-0.0124,-0.0125]}],[{"header":{"parameterUnit":"m.s-1","parameterCategory":2,"la1":30.2991,"la2":30.254,"lo1":-89.0895,"lo2":-89.0444,"dy":0.0017,"dx":0.0017,"nx":28,"ny":28,"refTime":"2024-08-11T21:00:00:Z","depth":"2","parameterNumber":2,"parameterNumberName":"U-component_of_CURRENTS"},"data":[0,0,0,0,0,0,0,0,0,0,0,0,0,0,0,0,0,0,0,0,0,0,0,0,0,0,0,0,0,0,0,0,0,0,0,0,0,0,0,0,0,0,0,0,0,0,0,0,0,0,0,0,0,0,0,0,0,0,0.1372,0.1372,0,0.1386,0.1386,0.1386,0.1364,0.1363,0.1363,0.1362,0.1335,0.1335,0.1334,0,0,0,0,0,0,0,0,0,0,0,0,0,0.1308,0.1309,0.1371,0.1372,0.1372,0.1386,0.1386,0.1386,0.1364,0.1363,0.1363,0.1362,0.1335,0.1335,0.1334,0,0,0,0,0,0,0,0,0,0,0,0,0,0.1327,0.131,0.1371,0.1366,0.1365,0.1386,0.1386,0.1386,0.1364,0.1363,0.1362,0.1362,0.1335,0.1335,0.1334,0.1345,0,0,0.1333,0.1333,0,0,0,0,0,0,0,0,0.1326,0.1329,0.1366,0.1366,0.1366,0.1375,0.1354,0.1371,0.1364,0.1361,0.1362,0.1361,0.1347,0.1346,0.1346,0.1344,0.1343,0.1333,0.1332,0.1332,0.1332,0,0,0,0,0,0,0,0.1325,0.1329,0.1374,0.1367,0.1367,0.1357,0.1358,0.1357,0.1354,0.1361,0.1361,0.1367,0.1346,0.1346,0.1345,0.1343,0.1333,0.1332,0.1332,0.1332,0.1411,0.1413,0,0,0,0,0,0,0.1332,0.1328,0.1373,0.1375,0.1348,0.1359,0.136,0.137,0.1355,0.1354,0.1368,0.1366,0.1347,0.1345,0.1344,0.1408,0.1332,0.1332,0.1332,0.1408,0.1411,0.1414,0,0,0,0,0,0,0.133,0.1336,0.1373,0.1354,0.1358,0.1361,0.1372,0.1371,0.1384,0.1362,0.1358,0.1383,0.1347,0.1344,0.1367,0.1405,0.1332,0.1331,0.1406,0.1409,0.1412,0.1504,0,0,0,0,0,0,0.1329,0.1335,0.1357,0.1354,0.136,0.1412,0.1373,0.1372,0.139,0.1388,0.1374,0.1369,0.1346,0.1368,0.1366,0.1403,0.1331,0.1403,0.1407,0.1411,0.1498,0.151,0.152,0,0,0,0,0,0.1326,0.1378,0.1358,0.1364,0.1385,0.1415,0.1418,0.1413,0.1391,0.1417,0.1403,0.1371,0.1395,0.1369,0.1367,0.1404,0.14,0.1406,0.1411,0.1493,0.1507,0.152,0,0,0,0,0,0,0.1382,0.1381,0.1358,0.1411,0.1416,0.1413,0.1449,0.1427,0.1435,0.1435,0.1396,0.1394,0.1432,0.1409,0.1382,0.1443,0.1394,0.1399,0.1457,0.1471,0.1482,0.1472,0.1331,0,0,0,0,0,0.1397,0.1428,0.1417,0.1464,0.1469,0.1453,0.1467,0.1458,0.146,0.1462,0.1448,0.1441,0.1452,0.1453,0.146,0.1487,0.1469,0.1513,0.1524,0.1533,0.1526,0.1548,0.156,0.1431,0.1431,0.1431,0,0,0.1438,0.1439,0.1461,0.1476,0.148,0.1483,0.1461,0.1497,0.1499,0.1459,0.1478,0.1485,0.1471,0.1508,0.1523,0.1492,0.1565,0.154,0.1548,0.1535,0.1555,0.1567,0.1578,0.1435,0.1434,0.1434,0,0,0.1493,0.1529,0.1538,0.1544,0.1549,0.1547,0.1558,0.1555,0.1562,0.1582,0.1559,0.159,0.1592,0.1596,0.1594,0.1672,0.1631,0.168,0.1719,0.1741,0.1751,0.176,0.1766,0.1775,0.1677,0.1677,0.1677,0,0.1534,0.1524,0.1555,0.1549,0.1549,0.1571,0.1558,0.1589,0.1593,0.1594,0.1604,0.163,0.1634,0.166,0.1697,0.1697,0.1694,0.1665,0.1754,0.1763,0.177,0.1774,0.1782,0.1682,0.1682,0.1681,0.1681,0,0.1544,0.1548,0.1573,0.1555,0.1578,0.1595,0.1613,0.1645,0.1658,0.1661,0.1709,0.1736,0.1738,0.1767,0.1757,0.1813,0.179,0.1772,0.1715,0.1788,0.1788,0.1795,0.169,0.1688,0.1686,0.1685,0,0,0.1567,0.157,0.1566,0.1545,0.1569,0.1586,0.1627,0.1642,0.1653,0.1714,0.1719,0.1796,0.1814,0.1815,0.1827,0.1862,0.1934,0.1845,0.1844,0.1843,0.1975,0.1892,0.189,0.1931,0.1933,0.1934,0.1958,0,0.1535,0.1514,0.1522,0.1518,0.1506,0.1547,0.1578,0.1616,0.1658,0.1692,0.1758,0.1792,0.1832,0.1848,0.1898,0.1913,0.1954,0.1928,0.1911,0.191,0.182,0.1896,0.1668,0.1664,0.1964,0.1965,0.1966,0,0.1477,0.1476,0.1453,0.1463,0.1463,0.1482,0.152,0.1551,0.1626,0.1659,0.1724,0.1768,0.1847,0.1872,0.1959,0.1939,0.197,0.1993,0.1994,0.1882,0.1839,0.1639,0.1664,0.1977,0.1976,0.1975,0.1974,0,0.1416,0.1409,0.139,0.1394,0.1431,0.1441,0.1472,0.1537,0.1569,0.1646,0.1677,0.1764,0.1815,0.1881,0.1959,0.1958,0.2037,0.2028,0.1985,0.1978,0.1761,0.1732,0.2092,0.2092,0.2092,0.2092,0.2092,0,0.1346,0.1332,0.1368,0.1365,0.1374,0.1406,0.1431,0.1478,0.1539,0.1588,0.1666,0.1721,0.1826,0.1889,0.1949,0.1986,0.2032,0.1999,0.1984,0.1788,0.1763,0.2007,0.1996,0.2093,0.2093,0.2093,0.2093,0,0.1289,0.1294,0.1295,0.1333,0.1347,0.1367,0.1425,0.1455,0.1507,0.1572,0.1603,0.1698,0.1782,0.1865,0.1957,0.1959,0.2004,0.2005,0.1763,0.1719,0.1931,0.1925,0.1949,0.1947,0.1944,0.1943,0.1941,0,0.126,0.1251,0.1294,0.1317,0.1343,0.1375,0.1409,0.1452,0.1489,0.1569,0.1603,0.1686,0.1748,0.1823,0.1797,0.1833,0.1975,0.1679,0.1641,0.1936,0.1919,0.1917,0.1915,0.1395,0.1389,0.1384,0.138,0,0.1242,0.1263,0.1283,0.1325,0.1359,0.1385,0.1429,0.1437,0.1498,0.153,0.1583,0.1621,0.1642,0.156,0.1578,0.1578,0.1647,0.1581,0.1948,0.1468,0.1415,0.1399,0.1414,0.1337,0.1342,0.1345,0.1347,0.1349,0.1261,0.1276,0.131,0.1348,0.1378,0.1391,0.1392,0.142,0.1433,0.1421,0.1484,0.144,0.1407,0.1293,0.1292,0.1266,0.1375,0.1338,0.1352,0.1372,0.1305,0.1251,0.1129,0.1132,0.1135,0.1137,0.1139,0,0.1289,0.131,0.1338,0.136,0.1369,0.1399,0.1409,0.1373,0.1355,0.1301,0.1277,0.1064,0.0993,0.1035,0.0884,0.0881,0.0864,0.0907,0.0872,0.091,0.0945,0.0859,0.0564,0.0564,0.0563,0.0563,0,0,0.1313,0.1333,0.1333,0.1343,0.1365,0.135,0.1344,0.1276,0.1209,0.1022,0.0912,0.0872,0.0921,0.0712,0.0676,0.0624,0.078,0.0593,0.1027,0.1016,0.1053,0.1135,0.1036,0,0,0,0,0]},{"header":{"parameterUnit":"m.s-1","parameterCategory":2,"la1":30.2991,"la2":30.254,"lo1":-89.0895,"lo2":-89.0444,"dy":0.0017,"dx":0.0017,"nx":28,"ny":28,"refTime":"2024-08-11T21:00:00:Z","depth":"2","parameterNumber":3,"parameterNumberName":"V-component_of_CURRENTS"},"data":[0,0,0,0,0,0,0,0,0,0,0,0,0,0,0,0,0,0,0,0,0,0,0,0,0,0,0,0,0,0,0,0,0,0,0,0,0,0,0,0,0,0,0,0,0,0,0,0,0,0,0,0,0,0,0,0,0,0,-0.0057,-0.0058,0,-0.0122,-0.0122,-0.0123,-0.0163,-0.0164,-0.0164,-0.0164,-0.0295,-0.0299,-0.0302,0,0,0,0,0,0,0,0,0,0,0,0,0,-0.0022,-0.0022,-0.0057,-0.0058,-0.0059,-0.0122,-0.0122,-0.0123,-0.0163,-0.0164,-0.0164,-0.0164,-0.0294,-0.0298,-0.0302,0,0,0,0,0,0,0,0,0,0,0,0,0,-0.0057,-0.0022,-0.0057,-0.0086,-0.009,-0.0121,-0.0122,-0.0124,-0.0163,-0.0164,-0.0164,-0.0164,-0.0293,-0.0298,-0.0303,-0.0326,0,0,-0.0318,-0.032,0,0,0,0,0,0,0,0,-0.0055,-0.0058,-0.0081,-0.0085,-0.0088,-0.0135,-0.0158,-0.0195,-0.0163,-0.0135,-0.0164,-0.0165,-0.0248,-0.0256,-0.0267,-0.0332,-0.0338,-0.0318,-0.0321,-0.0323,-0.0325,0,0,0,0,0,0,0,-0.0052,-0.0056,-0.0083,-0.0082,-0.0086,-0.0115,-0.012,-0.0165,-0.019,-0.0138,-0.0141,-0.0148,-0.025,-0.0262,-0.027,-0.0339,-0.0318,-0.0322,-0.0325,-0.0327,-0.0413,-0.0413,0,0,0,0,0,0,-0.0041,-0.0053,-0.0081,-0.0085,-0.0072,-0.0115,-0.012,-0.012,-0.0188,-0.0198,-0.0148,-0.015,-0.0253,-0.0264,-0.0275,-0.0278,-0.0323,-0.0328,-0.033,-0.0414,-0.0413,-0.0412,0,0,0,0,0,0,-0.004,-0.0043,-0.0078,-0.0071,-0.0078,-0.0115,-0.0114,-0.0121,-0.014,-0.0195,-0.0207,-0.0161,-0.0254,-0.0268,-0.0309,-0.0285,-0.033,-0.0334,-0.0415,-0.0414,-0.0413,-0.0303,0,0,0,0,0,0,-0.0039,-0.0042,-0.0043,-0.007,-0.0077,-0.0095,-0.0114,-0.0122,-0.0144,-0.0147,-0.021,-0.0222,-0.0255,-0.0302,-0.0314,-0.0292,-0.0338,-0.0415,-0.0414,-0.0413,-0.0307,-0.0298,-0.029,0,0,0,0,0,-0.0037,-0.0037,-0.0042,-0.0046,-0.0076,-0.0095,-0.0101,-0.013,-0.0144,-0.0149,-0.0186,-0.0221,-0.0302,-0.0305,-0.032,-0.0299,-0.0416,-0.0415,-0.0413,-0.0311,-0.03,-0.0291,0,0,0,0,0,0,-0.0026,-0.0042,-0.0048,-0.0054,-0.0071,-0.0102,-0.0112,-0.0131,-0.0164,-0.0167,-0.0221,-0.0235,-0.026,-0.03,-0.0302,-0.032,-0.0362,-0.0363,-0.0279,-0.0269,-0.0261,-0.0256,-0.0342,0,0,0,0,0,-0.0022,-0.0022,-0.0044,-0.0047,-0.0054,-0.0083,-0.0097,-0.0111,-0.0141,-0.0156,-0.0194,-0.0234,-0.0264,-0.0284,-0.0321,-0.0339,-0.0389,-0.0333,-0.0325,-0.0317,-0.0324,-0.0386,-0.0383,-0.0407,-0.0407,-0.0407,0,0,-0.0016,-0.0027,-0.0027,-0.0045,-0.006,-0.0072,-0.0093,-0.0105,-0.0109,-0.0167,-0.0185,-0.0213,-0.0265,-0.0274,-0.0288,-0.0305,-0.033,-0.0315,-0.0308,-0.0319,-0.0384,-0.0382,-0.038,-0.0406,-0.0407,-0.0407,0,0,-0.0023,-0.0015,-0.0029,-0.0036,-0.0055,-0.0062,-0.0066,-0.0089,-0.0093,-0.0107,-0.0144,-0.0158,-0.021,-0.0229,-0.0249,-0.0224,-0.0288,-0.0231,-0.0181,-0.024,-0.0239,-0.0238,-0.0269,-0.0272,-0.0222,-0.0221,-0.0221,0,-0.0018,-0.0039,-0.0036,-0.0052,-0.0057,-0.0058,-0.0073,-0.0069,-0.01,-0.0102,-0.0101,-0.0155,-0.0185,-0.0206,-0.0177,-0.0203,-0.0245,-0.021,-0.0228,-0.0229,-0.0231,-0.0263,-0.0268,-0.0216,-0.0217,-0.0217,-0.0218,0,-0.0053,-0.0056,-0.006,-0.0073,-0.0071,-0.0077,-0.0068,-0.006,-0.0053,-0.0056,-0.0063,-0.0086,-0.0119,-0.0114,-0.0132,-0.0148,-0.0174,-0.0213,-0.0251,-0.0222,-0.0257,-0.0265,-0.0208,-0.021,-0.0212,-0.0213,0,0,-0.0088,-0.0084,-0.009,-0.008,-0.008,-0.0073,-0.0061,-0.0057,-0.0045,-0.0038,-0.004,-0.0042,-0.0042,-0.0066,-0.0083,-0.0111,-0.0124,-0.015,-0.0156,-0.0173,-0.0239,-0.0159,-0.016,-0.0171,-0.0172,-0.0173,-0.0249,0,-0.0125,-0.0135,-0.0135,-0.0125,-0.0121,-0.0097,-0.0079,-0.006,-0.0042,-0.0032,-0.003,-0.0033,-0.0027,-0.0024,-0.0049,-0.0119,-0.0144,-0.0099,-0.0272,-0.0277,-0.0205,-0.0167,-0.019,-0.0252,-0.0257,-0.0258,-0.0259,0,-0.0183,-0.0173,-0.0169,-0.0124,-0.0122,-0.0104,-0.0061,-0.0048,-0.0026,-0.0012,-0.0006,-0.0013,-0.0024,-0.003,-0.0121,-0.0095,-0.0153,-0.0202,-0.0208,-0.0182,-0.0211,-0.029,-0.0266,-0.0272,-0.0271,-0.027,-0.0269,0,-0.0202,-0.0198,-0.018,-0.0169,-0.0123,-0.01,-0.0073,-0.004,-0.0009,0.0002,0.002,-0.001,-0.0009,-0.0095,-0.0136,-0.015,-0.0244,-0.0292,-0.0277,-0.0272,-0.0351,-0.035,-0.0373,-0.0373,-0.0373,-0.0373,-0.0372,0,-0.0234,-0.0215,-0.0174,-0.0154,-0.0106,-0.0086,-0.0035,-0.0009,0.0018,0.0058,0.004,0.0061,-0.0027,-0.0069,-0.0145,-0.0199,-0.0253,-0.0259,-0.0286,-0.0307,-0.0301,-0.0377,-0.0377,-0.0375,-0.0375,-0.0374,-0.0374,0,-0.022,-0.0217,-0.0172,-0.0123,-0.0101,-0.0051,0.0019,0.0056,0.0069,0.0113,0.0122,0.0107,0.0064,-0.0009,-0.0137,-0.0185,-0.0271,-0.0283,-0.0268,-0.0288,-0.0268,-0.0262,-0.0307,-0.0304,-0.0302,-0.0301,-0.03,0,-0.0198,-0.018,-0.012,-0.0081,-0.0044,0.002,0.0068,0.0096,0.0129,0.0153,0.0173,0.0156,0.0182,0.006,-0.0066,-0.0177,-0.0204,-0.0257,-0.028,-0.024,-0.0262,-0.0258,-0.0254,-0.035,-0.0349,-0.0349,-0.0348,0,-0.0132,-0.0114,-0.0069,-0.0004,0.0053,0.0115,0.0174,0.0201,0.0225,0.0261,0.0295,0.0317,0.0226,0.0122,0.0003,-0.0086,-0.0238,-0.0243,-0.025,-0.0326,-0.0277,-0.0299,-0.0295,-0.0342,-0.0343,-0.0343,-0.0344,-0.0344,-0.0059,-0.0015,0.0028,0.0095,0.0151,0.0204,0.0251,0.0295,0.0352,0.0412,0.0403,0.0428,0.0274,0.0132,0.0011,-0.0139,-0.0161,-0.0243,-0.0248,-0.0254,-0.0208,-0.0154,-0.0188,-0.0188,-0.0187,-0.0187,-0.0187,0,0.0033,0.0064,0.0125,0.0189,0.0248,0.0263,0.032,0.0358,0.0426,0.049,0.0551,0.0416,0.0321,0.0165,-0.0062,-0.0171,-0.022,-0.0194,-0.0267,-0.0273,-0.0278,-0.0236,-0.0222,-0.0222,-0.0222,-0.0222,0,0,0.0083,0.0145,0.016,0.026,0.0307,0.0372,0.0402,0.0461,0.0501,0.0565,0.0573,0.0586,0.0353,0.0189,0.0011,-0.0102,-0.0145,-0.0112,-0.0082,-0.0154,-0.0156,-0.0315,-0.0256,0,0,0,0,0]}],[{"header":{"parameterUnit":"m.s-1","parameterCategory":2,"la1":30.2991,"la2":30.254,"lo1":-89.0895,"lo2":-89.0444,"dy":0.0017,"dx":0.0017,"nx":28,"ny":28,"refTime":"2024-08-11T21:00:00:Z","depth":"4","parameterNumber":2,"parameterNumberName":"U-component_of_CURRENTS"},"data":[0,0,0,0,0,0,0,0,0,0,0,0,0,0,0,0,0,0,0,0,0,0,0,0,0,0,0,0,0,0,0,0,0,0,0,0,0,0,0,0,0,0,0,0,0,0,0,0,0,0,0,0,0,0,0,0,0,0,0.0099,0.01,0,0.0182,0.0183,0.0184,0.0232,0.0233,0.0233,0.0233,0.0287,0.0288,0.0289,0,0,0,0,0,0,0,0,0,0,0,0,0,0.0008,0.0009,0.0099,0.01,0.0101,0.0182,0.0183,0.0184,0.0232,0.0233,0.0233,0.0234,0.0287,0.0288,0.0289,0,0,0,0,0,0,0,0,0,0,0,0,0,0.0062,0.0009,0.0099,0.0137,0.0141,0.0182,0.0183,0.0184,0.0232,0.0233,0.0233,0.0234,0.0287,0.0288,0.029,0.0287,0,0,0.0294,0.0295,0,0,0,0,0,0,0,0,0.0059,0.0065,0.013,0.0134,0.0139,0.0199,0.0171,0.0218,0.0232,0.0195,0.0233,0.0234,0.0256,0.026,0.0272,0.029,0.0292,0.0295,0.0296,0.0296,0.0297,0,0,0,0,0,0,0,0.0055,0.0062,0.013,0.0131,0.0137,0.0159,0.0167,0.018,0.0219,0.0198,0.0203,0.0215,0.0258,0.027,0.0273,0.0293,0.0295,0.0296,0.0297,0.0298,0.0385,0.0386,0,0,0,0,0,0,0.0048,0.0059,0.0127,0.0132,0.0103,0.016,0.0169,0.0178,0.022,0.0228,0.0215,0.0217,0.0267,0.0271,0.0275,0.0328,0.0296,0.0298,0.0299,0.0383,0.0385,0.0386,0,0,0,0,0,0,0.0045,0.0053,0.0124,0.0099,0.011,0.0161,0.0171,0.0179,0.021,0.0233,0.024,0.0239,0.0268,0.0273,0.0297,0.0328,0.0298,0.03,0.0382,0.0384,0.0386,0.0399,0,0,0,0,0,0,0.0042,0.0051,0.0062,0.0099,0.0111,0.0159,0.0171,0.018,0.0217,0.0221,0.0255,0.026,0.0269,0.0295,0.0299,0.033,0.0301,0.038,0.0383,0.0385,0.0397,0.0401,0.0405,0,0,0,0,0,0.0039,0.0047,0.0062,0.0071,0.0122,0.016,0.0168,0.0205,0.0217,0.0234,0.0252,0.026,0.0315,0.0296,0.0301,0.0334,0.0379,0.0382,0.0385,0.0395,0.04,0.0405,0,0,0,0,0,0,0.0015,0.0054,0.0071,0.0092,0.013,0.0169,0.0192,0.0213,0.0241,0.0249,0.0265,0.0271,0.0305,0.0317,0.0297,0.0369,0.0354,0.0358,0.036,0.0365,0.0369,0.035,0.0302,0,0,0,0,0,0.0014,0.0035,0.0073,0.0097,0.0113,0.0155,0.0178,0.0202,0.023,0.0246,0.0272,0.0299,0.0319,0.0339,0.0357,0.039,0.0381,0.0419,0.0424,0.0427,0.0416,0.0422,0.0425,0.0396,0.0396,0.0396,0,0,0.0011,0.004,0.0051,0.0094,0.0127,0.0145,0.017,0.021,0.0228,0.0245,0.0284,0.0309,0.0328,0.0365,0.0384,0.0382,0.0434,0.0431,0.0433,0.042,0.0426,0.0428,0.043,0.0398,0.0398,0.0398,0,0,0.0004,0.0042,0.0048,0.0078,0.0129,0.0157,0.017,0.0218,0.0245,0.0282,0.0298,0.0334,0.0378,0.0396,0.0408,0.0445,0.0447,0.0473,0.0485,0.0492,0.0494,0.0495,0.0494,0.0495,0.0484,0.0484,0.0484,0,-0.0003,0.0021,0.0058,0.0072,0.0104,0.0159,0.0174,0.0203,0.0256,0.0279,0.0298,0.0362,0.0387,0.0414,0.044,0.0453,0.0456,0.0462,0.0495,0.0496,0.0497,0.0495,0.0496,0.0485,0.0485,0.0485,0.0485,0,-0.0017,0.0016,0.0029,0.0066,0.0096,0.0133,0.0173,0.0214,0.0261,0.029,0.0341,0.0373,0.0416,0.0441,0.0454,0.0488,0.0487,0.0489,0.0475,0.05,0.0497,0.0498,0.0486,0.0486,0.0486,0.0486,0,0,-0.0054,0.0004,0.0016,0.0051,0.0106,0.014,0.0168,0.022,0.0256,0.0305,0.034,0.0391,0.0426,0.0441,0.0471,0.0487,0.0511,0.0504,0.0504,0.0488,0.0525,0.0471,0.0466,0.0524,0.0524,0.0524,0.0521,0,-0.0063,-0.0028,-0.0002,0.0053,0.0086,0.0142,0.0171,0.0221,0.0274,0.0321,0.0352,0.0401,0.0419,0.0463,0.0475,0.0503,0.0513,0.0511,0.0514,0.0514,0.0451,0.0465,0.0525,0.0522,0.0522,0.0522,0.0522,0,-0.0077,-0.004,0.0001,0.0085,0.0102,0.0136,0.0224,0.0255,0.0309,0.0346,0.0382,0.0413,0.0448,0.0462,0.0491,0.0494,0.0511,0.0522,0.0522,0.0461,0.046,0.0492,0.0523,0.0523,0.0523,0.0522,0.0522,0,-0.0084,-0.0023,0.0024,0.005,0.0127,0.0165,0.0214,0.0274,0.0317,0.037,0.0409,0.043,0.0472,0.0476,0.0502,0.0513,0.0513,0.0529,0.0483,0.0479,0.0521,0.052,0.0534,0.0534,0.0534,0.0534,0.0534,0,-0.0079,-0.0036,0.0037,0.0069,0.0139,0.0184,0.026,0.0302,0.0359,0.0389,0.0433,0.0448,0.0484,0.049,0.0493,0.0477,0.0505,0.0474,0.0472,0.053,0.053,0.0522,0.052,0.0534,0.0534,0.0534,0.0534,0,-0.0086,-0.0041,0.0018,0.0104,0.0142,0.0195,0.0294,0.0333,0.0397,0.0432,0.0452,0.0487,0.048,0.0486,0.0493,0.048,0.0461,0.0447,0.0495,0.0497,0.0428,0.0428,0.0404,0.0402,0.04,0.0399,0.0398,0,-0.0086,-0.0057,0.004,0.0083,0.0132,0.0219,0.0267,0.0345,0.0365,0.0431,0.0422,0.0457,0.046,0.0427,0.0424,0.0403,0.0403,0.0406,0.0427,0.0413,0.0413,0.0416,0.0418,0.0395,0.0395,0.0394,0.0394,0,-0.0095,-0.0062,-0.0019,0.0069,0.0136,0.0201,0.0267,0.0289,0.0344,0.0407,0.0408,0.0418,0.04,0.0384,0.0375,0.0355,0.0409,0.0388,0.0393,0.0413,0.0401,0.0404,0.0408,0.0388,0.0389,0.0389,0.039,0,-0.0108,-0.0091,-0.0034,0.0046,0.0122,0.0162,0.0207,0.0239,0.0283,0.0349,0.033,0.0351,0.0379,0.0356,0.0326,0.0316,0.0324,0.034,0.0348,0.0354,0.0336,0.0314,0.0264,0,0,0,0,0,-0.0111,-0.0104,-0.0056,0.0016,0.0087,0.0133,0.0191,0.022,0.027,0.0265,0.0311,0.0287,0.0286,0.0286,0.0264,0.0274,0.0303,0.0248,0.032,0.0355,0.0362,0.0343,0,0,0,0,0,0,-0.0123,-0.0091,-0.0081,-0.0021,0.0027,0.0086,0.0124,0.0152,0.0155,0.0214,0.0208,0.0272,0.0256,0.029,0.0258,0.0258,0.0299,0.0265,0.0265,0.0351,0.0357,0.0363,0.0346,0,0,0,0,0]},{"header":{"parameterUnit":"m.s-1","parameterCategory":2,"la1":30.2991,"la2":30.254,"lo1":-89.0895,"lo2":-89.0444,"dy":0.0017,"dx":0.0017,"nx":28,"ny":28,"refTime":"2024-08-11T21:00:00:Z","depth":"4","parameterNumber":3,"parameterNumberName":"V-component_of_CURRENTS"},"data":[0,0,0,0,0,0,0,0,0,0,0,0,0,0,0,0,0,0,0,0,0,0,0,0,0,0,0,0,0,0,0,0,0,0,0,0,0,0,0,0,0,0,0,0,0,0,0,0,0,0,0,0,0,0,0,0,0,0,0.0249,0.0249,0,0.0244,0.0245,0.0245,0.0289,0.029,0.0292,0.0293,0.0242,0.0239,0.0237,0,0,0,0,0,0,0,0,0,0,0,0,0,0.0259,0.0259,0.0249,0.0249,0.0248,0.0244,0.0245,0.0245,0.0289,0.029,0.0292,0.0293,0.0242,0.024,0.0237,0,0,0,0,0,0,0,0,0,0,0,0,0,0.0257,0.0259,0.0249,0.0269,0.027,0.0244,0.0245,0.0245,0.0289,0.0291,0.0292,0.0294,0.0243,0.024,0.0236,0.0183,0,0,0.0226,0.0224,0,0,0,0,0,0,0,0,0.0257,0.0257,0.0266,0.0267,0.0269,0.0267,0.023,0.0221,0.0289,0.0284,0.0293,0.0294,0.0243,0.024,0.0239,0.0181,0.0178,0.0225,0.0223,0.0222,0.0221,0,0,0,0,0,0,0,0.0257,0.0257,0.0249,0.0266,0.0267,0.0265,0.0267,0.0228,0.0255,0.0284,0.0287,0.0283,0.0245,0.0242,0.0238,0.0178,0.0226,0.0222,0.022,0.0219,0.0032,0.0029,0,0,0,0,0,0,0.0254,0.0257,0.0249,0.0249,0.0265,0.0264,0.0266,0.0268,0.0257,0.0257,0.0282,0.0285,0.0248,0.0242,0.0236,0.0141,0.0222,0.0219,0.0217,0.0035,0.0031,0.0028,0,0,0,0,0,0,0.0254,0.0253,0.0249,0.0251,0.025,0.0262,0.0264,0.0267,0.027,0.0255,0.0255,0.0282,0.0249,0.0241,0.0192,0.014,0.0217,0.0214,0.0038,0.0034,0.003,-0.0031,0,0,0,0,0,0,0.0254,0.0254,0.0255,0.0251,0.025,0.0214,0.0262,0.0266,0.0264,0.0268,0.0254,0.0252,0.0249,0.0197,0.0188,0.0137,0.0211,0.0042,0.0036,0.0031,-0.0026,-0.0037,-0.0047,0,0,0,0,0,0.0255,0.023,0.0255,0.0254,0.0251,0.0212,0.021,0.0226,0.0262,0.024,0.0239,0.0252,0.0156,0.0192,0.0182,0.0129,0.0044,0.0038,0.0032,-0.0021,-0.0035,-0.0047,0,0,0,0,0,0,0.0231,0.0232,0.0259,0.0239,0.0224,0.0218,0.0198,0.022,0.0206,0.0215,0.0221,0.0215,0.015,0.0142,0.0181,0.0056,0.0099,0.0091,0.0062,0.0049,0.0039,0.0057,0.0208,0,0,0,0,0,0.0229,0.0214,0.0215,0.0196,0.0188,0.0199,0.019,0.02,0.0187,0.0185,0.0174,0.0152,0.0112,0.0088,0.0052,-0.0017,0.0012,-0.0061,-0.0072,-0.0081,-0.0075,-0.0079,-0.0088,0.0007,0.0007,0.0007,0,0,0.0211,0.0213,0.0203,0.019,0.0186,0.0157,0.0197,0.0169,0.0148,0.0176,0.0133,0.0115,0.0087,0.0014,-0.0018,0.0003,-0.0095,-0.0089,-0.0096,-0.0085,-0.0086,-0.0095,-0.0103,0.0003,0.0004,0.0004,0,0,0.0168,0.0172,0.0153,0.0135,0.0123,0.0116,0.0108,0.0096,0.0093,0.0042,0.0061,0.0018,-0.0049,-0.0073,-0.0094,-0.0189,-0.0147,-0.0213,-0.0256,-0.0261,-0.0267,-0.0273,-0.0243,-0.0245,-0.0222,-0.0223,-0.0223,0,0.0154,0.0151,0.0135,0.0112,0.0106,0.0097,0.0081,0.0047,0.0021,0.002,0.0012,-0.0059,-0.0092,-0.015,-0.0195,-0.0212,-0.0189,-0.02,-0.027,-0.0275,-0.028,-0.0248,-0.0249,-0.0226,-0.0226,-0.0225,-0.0225,0,0.0113,0.0108,0.0083,0.0065,0.0035,0.0012,-0.0024,-0.0056,-0.0064,-0.0075,-0.0132,-0.0177,-0.0204,-0.0249,-0.0259,-0.0317,-0.0281,-0.0275,-0.0226,-0.0292,-0.0255,-0.0256,-0.0232,-0.023,-0.0229,-0.0228,0,0,0.0114,0.0071,0.0072,0.0078,0.0027,0.0005,-0.0061,-0.0092,-0.0099,-0.0171,-0.0174,-0.0288,-0.0281,-0.0306,-0.0324,-0.0358,-0.0388,-0.034,-0.0339,-0.0289,-0.0368,-0.0356,-0.0355,-0.0388,-0.0388,-0.0389,-0.0325,0,0.0114,0.0087,0.0059,0.0029,0.0021,-0.0017,-0.0066,-0.011,-0.0147,-0.0174,-0.0232,-0.026,-0.0313,-0.0316,-0.0367,-0.037,-0.0394,-0.0404,-0.033,-0.0327,-0.0291,-0.0358,-0.0392,-0.0325,-0.0325,-0.0325,-0.0325,0,0.0116,0.0107,0.0088,0.0064,0.0058,0.002,-0.0013,-0.0057,-0.0122,-0.0144,-0.0195,-0.0222,-0.0288,-0.0317,-0.0369,-0.0368,-0.0378,-0.0392,-0.0389,-0.0354,-0.0318,-0.025,-0.0325,-0.0325,-0.0325,-0.0325,-0.0325,0,0.0169,0.0139,0.0139,0.0125,0.007,0.0058,0.0028,-0.0037,-0.0051,-0.0107,-0.0111,-0.0189,-0.0203,-0.0257,-0.0317,-0.033,-0.0351,-0.0358,-0.0354,-0.035,-0.0345,-0.0339,-0.0388,-0.0388,-0.0389,-0.0389,-0.0389,0,0.019,0.0192,0.0167,0.0161,0.016,0.0111,0.0102,0.0054,0.0018,0.0,-0.0075,-0.0102,-0.0192,-0.0226,-0.0284,-0.032,-0.0319,-0.0364,-0.0345,-0.0373,-0.0372,-0.0343,-0.0339,-0.0386,-0.0387,-0.0387,-0.0388,0,0.0212,0.0203,0.0205,0.0181,0.0177,0.0171,0.0146,0.014,0.0103,0.0082,0.0072,-0.0014,-0.0077,-0.0149,-0.0214,-0.0254,-0.0296,-0.0303,-0.0303,-0.0283,-0.0292,-0.0293,-0.0284,-0.0283,-0.0282,-0.0282,-0.0282,0,0.0203,0.0215,0.0223,0.0229,0.0211,0.0209,0.0206,0.0176,0.0167,0.0119,0.0111,0.0058,-0.0014,-0.0084,-0.0174,-0.0243,-0.027,-0.0255,-0.0323,-0.0306,-0.0288,-0.0289,-0.0289,-0.0281,-0.0281,-0.028,-0.028,0,0.0193,0.0213,0.0213,0.0241,0.0249,0.0254,0.0247,0.0245,0.0207,0.0204,0.0139,0.0074,0.0012,-0.0089,-0.0128,-0.0195,-0.0252,-0.025,-0.0252,-0.0316,-0.0302,-0.0285,-0.0286,-0.0278,-0.0279,-0.0279,-0.0279,0,0.0189,0.0194,0.0221,0.0237,0.0264,0.0268,0.0263,0.0246,0.0239,0.0186,0.0166,0.0074,0.0027,-0.0062,-0.0116,-0.0165,-0.0193,-0.0202,-0.0208,-0.021,-0.0231,-0.0205,-0.014,0,0,0,0,0,0.0178,0.0191,0.0211,0.0229,0.0264,0.0277,0.0276,0.0269,0.0248,0.0211,0.0186,0.0113,0.0011,-0.0044,-0.0094,-0.0116,-0.02,-0.0172,-0.0212,-0.0268,-0.027,-0.0309,0,0,0,0,0,0,0.0172,0.0195,0.0207,0.0231,0.0246,0.0274,0.0271,0.0254,0.0224,0.0196,0.0134,0.0124,0.0015,0.0042,-0.0088,-0.0104,-0.0131,-0.0216,-0.0216,-0.0266,-0.0268,-0.027,-0.0312,0,0,0,0,0]}]]